Tracking 23610 objects as of 19-Sep-2021
HD Live streaming from Space Station
objects crossing your sky now

MOLNIYA 3-27

Track MOLNIYA 3-27 now!
MOLNIYA 3-27 is classified as:


NORAD ID: 16393
Int'l Code: 1985-117A
Perigee: 1,782.5 km
Apogee: 36,604.4 km
Inclination: 64.6 °
Period: 678.0 minutes
Semi major axis: 25564 km
RCS: 15.138 m2 (large)
Launch date: December 24, 1985
Source: Commonwealth of Independent States (former USSR) (CIS)
Launch site: PLESETSK MISSILE AND SPACE COMPLEX (PKMTR)
aabbcc
Your satellite tracking list
Your tracking list is empty




NASA's NSSDC Master Catalog

Two Line Element Set (TLE):
1 16393U 85117A   21260.62587489 -.00000017  00000-0  00000-0 0  9993
2 16393  64.5561 115.3198 6810622 251.0444  28.1578  2.12397537268381
Source of the keplerian elements: AFSPC